Rush City, MN

6:10 PM CST on February 27, 2017 (GMT -0600)
Rush City Regional

Weather History for KROS - January, 2013

Change the Weather History Date:

Wednesday, January 9, 2013

  Actual Average (KCBG) Record (KCBG)
Temperature  
Mean Temperature 26 °F -  
Max Temperature 32 °F 14 °F 48 °F (2002)
Min Temperature 21 °F -5 °F -41 °F (1977)
Degree Days  
Heating Degree Days 38    
Moisture  
Dew Point 21 °F    
Average Humidity 72    
Maximum Humidity 85    
Minimum Humidity 59    
Precipitation  
Precipitation 0.00 in - - ()
Sea Level Pressure  
Sea Level Pressure 30.12 in    
Wind  
Wind Speed 10 mph (SW)    
Max Wind Speed 21 mph    
Max Gust Speed 29 mph    
Visibility 10 miles    
Events      
Averages and records for this station are not official NWS values.
T = Trace of Precipitation, MM = Missing Value Source: NWS Daily Summary

Daily Weather History Graph

Daily Weather History Graph

Search for Another Location

Airport or City:

Trip Planner

Search our weather history database for the weather conditions in past years. The results will help you decide how hot, cold, wet, or windy it might be!

Date:

Astronomy

Jan. 09, 2013 Rise Set
Actual Time 7:51 AM CST 4:47 PM CST
Civil Twilight 7:17 AM CST 5:20 PM CST
Nautical Twilight 6:40 AM CST 5:58 PM CST
Astronomical Twilight 6:04 AM CST 6:33 PM CST
Moon 5:31 AM CST (1/9) 2:49 PM CST (1/9)
Length of Visible Light 10h 03m
Length of Day
8h 55m
Waning Crescent, 6% of the Moon is Illuminated
Jan 9
Waning Crescent
Jan 11
New
Jan 18
First Quarter
Jan 26
Full
Feb 3
Last Quarter

Hourly Weather History & Observations

Time (CST) Temp. Windchill Dew Point Humidity Pressure Visibility Wind Dir Wind Speed Gust Speed Precip Events Conditions
12:15 AM 29.3 °F 21.5 °F 25.3 °F 85% 29.83 in 10.0 mi SW 8.1 mph - N/A   Scattered Clouds
12:35 AM 29.8 °F 21.5 °F 25.7 °F 85% 29.84 in 10.0 mi SW 9.2 mph - N/A   Scattered Clouds
12:55 AM 30.2 °F 21.3 °F 26.1 °F 85% 29.84 in 10.0 mi SW 10.4 mph - N/A   Mostly Cloudy
1:15 AM 31.1 °F 23.7 °F 26.1 °F 82% 29.85 in 10.0 mi SW 8.1 mph - N/A   Overcast
1:34 AM 31.1 °F 23.7 °F 26.1 °F 82% 29.84 in 10.0 mi SW 8.1 mph - N/A   Overcast
1:55 AM 31.1 °F 24.5 °F 25.5 °F 80% 29.85 in 10.0 mi SW 6.9 mph - N/A   Scattered Clouds
2:15 AM 31.1 °F 24.5 °F 25.3 °F 79% 29.86 in 10.0 mi SW 6.9 mph 16.1 mph N/A   Clear
2:35 AM 30.6 °F 23.1 °F 24.8 °F 79% 29.85 in 10.0 mi SW 8.1 mph - N/A   Clear
2:55 AM 31.1 °F 23.7 °F 25.2 °F 79% 29.86 in 10.0 mi SW 8.1 mph - N/A   Mostly Cloudy
3:15 AM 31.1 °F 24.5 °F 25.2 °F 79% 29.86 in 10.0 mi WSW 6.9 mph - N/A   Mostly Cloudy
3:34 AM 32.0 °F 23.6 °F 25.7 °F 78% 29.86 in 10.0 mi WSW 10.4 mph 16.1 mph N/A   Scattered Clouds
3:55 AM 32.0 °F 23.0 °F 25.7 °F 78% 29.86 in 10.0 mi WSW 11.5 mph 18.4 mph N/A   Clear
4:15 AM 31.6 °F 23.1 °F 25.5 °F 78% 29.86 in 10.0 mi WSW 10.4 mph 16.1 mph N/A   Clear
4:35 AM 32.2 °F 22.7 °F 25.7 °F 77% 29.87 in 10.0 mi WSW 12.7 mph 20.7 mph N/A   Mostly Cloudy
4:55 AM 32.9 °F 21.0 °F 25.2 °F 73% 29.87 in 10.0 mi West 20.7 mph 27.6 mph N/A   Mostly Cloudy
5:14 AM 32.9 °F 22.4 °F 24.4 °F 71% 29.89 in 10.0 mi West 16.1 mph 28.8 mph N/A   Scattered Clouds
5:35 AM 32.2 °F 20.7 °F 24.3 °F 73% 29.90 in 10.0 mi West 18.4 mph 25.3 mph N/A   Clear
5:54 AM 32.0 °F 21.6 °F 23.7 °F 71% 29.91 in 10.0 mi West 15.0 mph 25.3 mph N/A   Clear
6:15 AM 32.0 °F 21.6 °F 23.4 °F 70% 29.93 in 10.0 mi West 15.0 mph 26.5 mph N/A   Scattered Clouds
6:35 AM 31.1 °F 19.7 °F 23.0 °F 72% 29.95 in 10.0 mi West 17.3 mph 25.3 mph N/A   Clear
6:54 AM 30.7 °F 18.1 °F 22.3 °F 71% 29.97 in 10.0 mi West 20.7 mph 28.8 mph N/A   Clear
7:15 AM 30.0 °F 20.0 °F 21.9 °F 72% 29.99 in 10.0 mi West 12.7 mph 27.6 mph N/A   Scattered Clouds
7:35 AM 29.7 °F 17.1 °F 21.9 °F 73% 30.01 in 10.0 mi West 19.6 mph 27.6 mph N/A   Scattered Clouds
7:55 AM 28.9 °F 17.7 °F 21.2 °F 73% 30.02 in 10.0 mi West 15.0 mph 25.3 mph N/A   Scattered Clouds
8:15 AM 28.9 °F 16.1 °F 21.0 °F 72% 30.04 in 10.0 mi West 19.6 mph 27.6 mph N/A   Clear
8:34 AM 28.9 °F 15.8 °F 20.8 °F 72% 30.05 in 10.0 mi West 20.7 mph 28.8 mph N/A   Clear
9:14 AM 29.1 °F 18.4 °F 20.3 °F 70% 30.08 in 10.0 mi West 13.8 mph 24.2 mph N/A   Clear
9:35 AM 29.1 °F 17.5 °F 20.3 °F 70% 30.09 in 10.0 mi West 16.1 mph 21.9 mph N/A   Clear
9:55 AM 29.1 °F 18.9 °F 20.3 °F 70% 30.10 in 10.0 mi West 12.7 mph 23.0 mph N/A   Clear
10:14 AM 29.7 °F 18.6 °F 20.3 °F 68% 30.11 in 10.0 mi West 15.0 mph 20.7 mph N/A   Clear
10:35 AM 30.2 °F 21.3 °F 20.3 °F 67% 30.12 in 10.0 mi West 10.4 mph 19.6 mph N/A   Clear
10:55 AM 30.4 °F 19.5 °F 20.1 °F 66% 30.12 in 10.0 mi West 15.0 mph 18.4 mph N/A   Clear
11:15 AM 30.7 °F 21.4 °F 20.3 °F 65% 30.12 in 10.0 mi West 11.5 mph - N/A   Clear
11:35 AM 31.5 °F 23.5 °F 20.3 °F 63% 30.13 in 10.0 mi West 9.2 mph - N/A   Clear
11:54 AM 31.6 °F 24.4 °F 20.3 °F 63% 30.15 in 10.0 mi WSW 8.1 mph - N/A   Clear
12:15 PM 31.6 °F 23.1 °F 19.8 °F 62% 30.17 in 10.0 mi WSW 10.4 mph - N/A   Clear
12:35 PM 31.8 °F 22.8 °F 19.9 °F 62% 30.18 in 10.0 mi WSW 11.5 mph - N/A   Clear
12:55 PM 32.0 °F 25.6 °F 20.3 °F 62% 30.19 in 10.0 mi West 6.9 mph - N/A   Clear
1:15 PM 32.0 °F 23.6 °F 20.3 °F 62% 30.21 in 10.0 mi WSW 10.4 mph - N/A   Clear
1:34 PM 31.5 °F 22.9 °F 19.9 °F 62% 30.23 in 10.0 mi WSW 10.4 mph 17.3 mph N/A   Clear
1:55 PM 31.6 °F 23.1 °F 19.9 °F 62% 30.25 in 10.0 mi WSW 10.4 mph 17.3 mph N/A   Clear
2:15 PM 31.8 °F 23.3 °F 19.4 °F 60% 30.26 in 10.0 mi WSW 10.4 mph 19.6 mph N/A   Clear
2:35 PM 32.2 °F 24.4 °F 19.8 °F 60% 30.26 in 10.0 mi WSW 9.2 mph - N/A   Clear
2:55 PM 32.2 °F 25.8 °F 20.1 °F 61% 30.27 in 10.0 mi WSW 6.9 mph - N/A   Clear
3:14 PM 32.4 °F 24.6 °F 19.4 °F 59% 30.28 in 10.0 mi WSW 9.2 mph - N/A   Clear
3:35 PM 32.0 °F 23.6 °F 19.4 °F 60% 30.30 in 10.0 mi SW 10.4 mph - N/A   Clear
3:54 PM 32.0 °F 24.2 °F 19.2 °F 59% 30.31 in 10.0 mi SW 9.2 mph - N/A   Clear
4:15 PM 31.1 °F 23.7 °F 19.2 °F 61% 30.32 in 10.0 mi WSW 8.1 mph - N/A   Clear
4:35 PM 30.2 °F 26.7 °F 18.7 °F 62% 30.31 in 10.0 mi SW 3.5 mph - N/A   Clear
4:54 PM 28.4 °F - 18.5 °F 66% 30.31 in 10.0 mi Calm Calm - N/A   Clear
5:15 PM 27.5 °F - 18.3 °F 68% 30.31 in 10.0 mi Calm Calm - N/A   Clear
5:35 PM 27.3 °F - 17.6 °F 67% 30.32 in 10.0 mi Calm Calm - N/A   Clear
5:54 PM 25.0 °F - 16.7 °F 71% 30.32 in 10.0 mi Calm Calm - N/A   Clear
6:15 PM 24.6 °F 18.8 °F 16.7 °F 72% 30.33 in 10.0 mi South 4.6 mph - N/A   Clear
6:35 PM 26.8 °F 21.4 °F 18.5 °F 71% 30.31 in 10.0 mi South 4.6 mph - N/A   Mostly Cloudy
6:54 PM 25.9 °F 20.3 °F 18.3 °F 73% 30.31 in 10.0 mi South 4.6 mph - N/A   Scattered Clouds
7:15 PM 24.4 °F 20.1 °F 18.0 °F 76% 30.30 in 10.0 mi SSE 3.5 mph - N/A   Clear
7:35 PM 23.4 °F 15.2 °F 17.2 °F 77% 30.31 in 10.0 mi South 6.9 mph - N/A   Clear
7:54 PM 23.7 °F 16.6 °F 17.8 °F 78% 30.30 in 10.0 mi SSE 5.8 mph - N/A   Clear
8:35 PM 23.2 °F 17.2 °F 17.8 °F 80% 30.30 in 10.0 mi SSE 4.6 mph - N/A   Clear
8:55 PM 22.6 °F - 17.4 °F 80% 30.29 in 10.0 mi Calm Calm - N/A   Clear
9:15 PM 21.0 °F 13.4 °F 16.5 °F 83% 30.30 in 10.0 mi SSE 5.8 mph - N/A   Clear
9:35 PM 22.1 °F 15.9 °F 17.1 °F 81% 30.29 in 10.0 mi SSE 4.6 mph - N/A   Clear
9:55 PM 22.1 °F 15.9 °F 17.1 °F 81% 30.28 in 10.0 mi SSE 4.6 mph - N/A   Clear
10:15 PM 21.7 °F 15.5 °F 16.9 °F 82% 30.28 in 10.0 mi SSE 4.6 mph - N/A   Clear
10:35 PM 21.4 °F - 16.7 °F 82% 30.28 in 10.0 mi Calm Calm - N/A   Clear
10:55 PM 21.2 °F 14.9 °F 17.1 °F 84% 30.27 in 10.0 mi SE 4.6 mph - N/A   Clear
11:15 PM 21.0 °F 12.4 °F 16.9 °F 84% 30.27 in 10.0 mi SSE 6.9 mph - N/A   Clear
11:35 PM 21.7 °F 14.3 °F 17.4 °F 83% 30.28 in 10.0 mi SE 5.8 mph - N/A   Clear
11:55 PM 21.2 °F 14.9 °F 17.2 °F 85% 30.29 in 10.0 mi SSE 4.6 mph - N/A   Clear